SL-16 DEB, 23709

Orbit data source: Space-Track

SL-16 DEB, 23709 is space debris in LEO originally from a launch on Tue, 31 Oct 1995 UTC launched from the Tyuratam Missile And Space Complex (TTMTR). Debris objects in space refer to the collection of defunct objects orbiting the Earth. Examples of debris include non-operational satellites, rocket bodies, and fragments generated from explosions, collisions, or faulty payload assembly.

Loading next visibility...
Identifier
23709, 1995-058F
Orbit
LEO
Country
Flag of CISCIS
Related business
Manufacturer
Yuzhnoe
Mission
Spacecraft
Bus & Motor
SEP MOTOR COVER, Unknown motor
Mass
~0 kg wet, ~1 kg dry
Launch date (UTC)
1995-10-31 (31 years ago)
Launch vehicle
Unknown
Launch site
Tyuratam Missile And Space Complex (TTMTR)
Object type
Payload
Rocket body
Debris
Shape & HBR
CONE, 0.1 m
Radar Cross Section
Medium (>0.1 m² and <1 m²)

Expand to show TLE details & history
Last TLE update: 14 hours ago

TLE from 14 hours ago
0 SL-16 DEB
1 23709U 95058F   26266.74377510  .00000079  00000-0  11111-3 0  9998
2 23709  71.0352 269.9792 0197951 211.4974 323.5355 13.74803930549276
Epoch: 2026-09-23T17:51Z
TLE epoch observation values (Epoch: 2026-09-23T17:51:02.168Z)
Latitude
5.92817°
Longitude
177.59557°
Altitude
868.011 km
Speed
7.477 km/s
True Right ascension
05h 51m 46s
True Declination
5° 53' 37"
Sunlit
Object was in daylight at epoch
Visualization orbit readout
Latitude
Unknown
Longitude
Unknown
Altitude
Unknown
Speed
Unknown
Apparent Right ascension
Unknown
Apparent Declination
Unknown
Sunlit
N/A
Visualization observer readout
Local Sidereal Time
01:18:18
Azimuth
Unknown
Elevation
Unknown
Doppler factor
Unknown
Orbital elements
Apogee altitude
1,125.996 km
Perigee altitude
834.673 km
Semi-major axis
7,358.471 km
Eccentricity
0.0198
Inclination
71.0352°
RAAN
269.9792°
Arg. of periapsis
211.4974°
True anomaly
322.16015°
Mean anomaly
323.5355°
Eccentric anomaly
322.85058°
Mean motion
3.43844 °/min
Orbital period
104.7 mins
BSTAR
0.00011111
Loading maneuver chart data...
Computing Atmospheric mass density...
Loading historical data...
Loading historical data...
Loading historical data...
Loading historical data...
Loading historical data...
Loading historical data...
Loading historical data...

Documentation

Showing up to 5 results
|